Weather History for Hattiesburg, MS

Change the Weather History Date:

Saturday, February 9, 2013

  Actual Average Record
Temperature  
Mean Temperature 54 °F 50 °F  
Max Temperature 67 °F 62 °F 84 °F (1957)
Min Temperature 41 °F 39 °F 20 °F (1971)
Degree Days  
Heating Degree Days 11 15  
Month to date heating degree days 82 141  
Since 1 July heating degree days 1161 1440  
Cooling Degree Days 0 0  
Month to date cooling degree days 0 0  
Year to date cooling degree days 28 6  
Growing Degree Days 4 (Base 50)    
Moisture  
Dew Point 45 °F    
Average Humidity 71    
Maximum Humidity 89    
Minimum Humidity 52    
Precipitation  
Precipitation 0.00 in 0.19 in 1.54 in (1949)
Month to date precipitation 1.12 1.56  
Year to date precipitation 9.05 7.30  
Sea Level Pressure  
Sea Level Pressure 30.19 in    
Wind  
Wind Speed 5 mph (East)    
Max Wind Speed 13 mph    
Max Gust Speed 16 mph    
Visibility 9 miles    
Events      
T = Trace of Precipitation, MM = Missing Value Source: NWS Daily Summary

Daily Weather History Graph

Daily Weather History Graph

Search for Another Location

Airport:

Trip Planner

Search our weather history database for the weather conditions in past years. The results will help you decide how hot, cold, wet, or windy it might be!

Date:

Astronomy

Feb. 09, 2013 Rise Set
Actual Time 6:43 AM CST 5:39 PM CST
Civil Twilight 6:18 AM CST 6:04 PM CST
Nautical Twilight 5:49 AM CST 6:33 PM CST
Astronomical Twilight 5:21 AM CST 7:01 PM CST
Moon 5:55 AM CST (2/9) 5:19 PM CST (2/9)
Length of Visible Light 11h 46m
Length of Day
10h 56m
Waning Crescent, 0% of the Moon is Illuminated
Feb 9
Waning Crescent
Feb 10
New
Feb 17
First Quarter
Feb 25
Full
Mar 4
Last Quarter

Hourly Weather History & Observations

Time (CST) Temp. Windchill Dew Point Humidity Pressure Visibility Wind Dir Wind Speed Gust Speed Precip Events Conditions
12:53 AM 48.0 °F - 41.0 °F 77% 30.22 in 10.0 mi NNE 6.9 mph - N/A   Clear
1:53 AM 46.0 °F 44.8 °F 39.9 °F 79% 30.22 in 10.0 mi NNE 3.5 mph - N/A   Clear
2:53 AM 45.0 °F 42.6 °F 39.9 °F 82% 30.22 in 10.0 mi NNE 4.6 mph - N/A   Clear
3:53 AM 43.0 °F 40.3 °F 39.0 °F 86% 30.22 in 10.0 mi NNE 4.6 mph - N/A   Clear
4:53 AM 42.1 °F 39.2 °F 37.9 °F 85% 30.23 in 10.0 mi NNE 4.6 mph - N/A   Partly Cloudy
5:53 AM 41.0 °F 38.0 °F 37.9 °F 89% 30.23 in 10.0 mi NE 4.6 mph - N/A   Clear
6:53 AM 41.0 °F 39.0 °F 37.0 °F 86% 30.25 in 9.0 mi ENE 3.5 mph - N/A   Clear
7:03 AM 41.0 °F 38.0 °F 37.4 °F 87% 30.26 in 8.0 mi East 4.6 mph - N/A   Partly Cloudy
7:53 AM 41.0 °F 36.4 °F 37.0 °F 86% 30.27 in 10.0 mi East 6.9 mph - N/A   Clear
8:53 AM 45.0 °F 40.6 °F 37.9 °F 76% 30.27 in 10.0 mi East 8.1 mph - N/A   Clear
9:53 AM 48.0 °F - 39.0 °F 71% 30.27 in 10.0 mi East 4.6 mph - N/A   Clear
10:53 AM 53.1 °F - 39.9 °F 61% 30.27 in 10.0 mi Calm Calm - N/A   Clear
11:53 AM 57.9 °F - 42.1 °F 56% 30.25 in 10.0 mi Calm Calm - N/A   Clear
12:21 PM 59.0 °F - 42.8 °F 55% 30.23 in 10.0 mi SE 4.6 mph - N/A   Mostly Cloudy
12:53 PM 60.1 °F - 44.1 °F 55% 30.20 in 10.0 mi ESE 4.6 mph - N/A   Overcast
1:31 PM 62.6 °F - 46.4 °F 55% 30.18 in 10.0 mi ENE 3.5 mph - N/A   Scattered Clouds
1:53 PM 64.0 °F - 46.9 °F 54% 30.17 in 10.0 mi ESE 4.6 mph - N/A   Clear
2:53 PM 66.0 °F - 48.9 °F 54% 30.14 in 10.0 mi ESE 6.9 mph - N/A   Clear
3:53 PM 66.9 °F - 50.0 °F 54% 30.12 in 10.0 mi ESE 6.9 mph - N/A   Clear
4:46 PM 64.4 °F - 50.0 °F 59% 30.12 in 2.5 mi East 6.9 mph - N/A   Haze
4:53 PM 64.9 °F - 50.0 °F 58% 30.12 in 3.0 mi East 6.9 mph - N/A   Haze
5:53 PM 61.0 °F - 51.1 °F 70% 30.12 in 6.0 mi SE 3.5 mph - N/A   Haze
6:53 PM 55.9 °F - 51.1 °F 84% 30.13 in 6.0 mi Calm Calm - N/A   Haze
7:53 PM 55.9 °F - 51.1 °F 84% 30.14 in 7.0 mi Calm Calm - N/A   Clear
8:53 PM 57.0 °F - 52.0 °F 83% 30.14 in 10.0 mi SSE 6.9 mph - N/A   Clear
9:53 PM 57.0 °F - 52.0 °F 83% 30.14 in 10.0 mi SSE 12.7 mph - N/A   Clear
10:53 PM 55.0 °F - 52.0 °F 89% 30.12 in 10.0 mi SSE 4.6 mph - N/A   Partly Cloudy
11:53 PM 55.9 °F - 52.0 °F 87% 30.11 in 10.0 mi SE 3.5 mph - N/A   Partly Cloudy